UAL1365 KEWR-KRDU

Flight info

Callsign UAL1365
Flight time N/A
Altitude 38000
Route ELVAE NECCK WHITE Q409 VILLS NALES Q141 HOUKY TAQLE3
Aircraft B739/M-SDE2E3FGHIRWXY/LB1

Departure

Time N/A
Airport Newark Liberty International Airport (KEWR)

Arrival

Time 2026-05-08 01:07
Airport Raleigh-Durham International Airport (KRDU)
Time Latitude Longitude Altitude Speed Heading
2026-05-08 00:40 36.84928 -77.46250 37383 ft 384 kts 222°
2026-05-08 00:41 36.82658 -77.47927 36882 ft 378 kts 222°
2026-05-08 00:41 36.80420 -77.49576 36203 ft 377 kts 223°
2026-05-08 00:41 36.78168 -77.51237 35435 ft 377 kts 223°
2026-05-08 00:41 36.75902 -77.52911 34647 ft 379 kts 223°
2026-05-08 00:42 36.73633 -77.54587 33825 ft 380 kts 223°
2026-05-08 00:42 36.71351 -77.56269 32978 ft 382 kts 223°
2026-05-08 00:42 36.69059 -77.57955 32111 ft 383 kts 223°
2026-05-08 00:42 36.66762 -77.59647 31219 ft 385 kts 223°
2026-05-08 00:43 36.64454 -77.61348 30351 ft 386 kts 223°
2026-05-08 00:43 36.62153 -77.63034 29735 ft 381 kts 223°
2026-05-08 00:43 36.59886 -77.64695 29087 ft 377 kts 223°
2026-05-08 00:43 36.57640 -77.66341 28449 ft 372 kts 223°
2026-05-08 00:44 36.55423 -77.67964 27855 ft 367 kts 223°
2026-05-08 00:44 36.53273 -77.69606 27249 ft 357 kts 226°
2026-05-08 00:44 36.51338 -77.71455 26584 ft 346 kts 232°
2026-05-08 00:44 36.49610 -77.73498 25976 ft 340 kts 233°
2026-05-08 00:45 36.47918 -77.75519 25397 ft 335 kts 233°
2026-05-08 00:45 36.46246 -77.77510 24819 ft 331 kts 232°
2026-05-08 00:45 36.44590 -77.79476 24257 ft 328 kts 232°
2026-05-08 00:45 36.42946 -77.81424 23693 ft 325 kts 232°
2026-05-08 00:46 36.41322 -77.83348 23144 ft 322 kts 232°
2026-05-08 00:46 36.39730 -77.85233 22615 ft 319 kts 231°
2026-05-08 00:46 36.38119 -77.87140 22046 ft 321 kts 231°
2026-05-08 00:46 36.36488 -77.89074 21499 ft 331 kts 231°
2026-05-08 00:47 36.34797 -77.91078 20912 ft 339 kts 230°
2026-05-08 00:47 36.33092 -77.93087 20336 ft 336 kts 230°
2026-05-08 00:47 36.31401 -77.95075 19745 ft 333 kts 229°
2026-05-08 00:47 36.29725 -77.97046 19170 ft 330 kts 229°
2026-05-08 00:48 36.28068 -77.98995 18608 ft 327 kts 229°
2026-05-08 00:48 36.26421 -78.00930 18046 ft 325 kts 229°
2026-05-08 00:48 36.24785 -78.02864 17483 ft 323 kts 230°
2026-05-08 00:48 36.23363 -78.04975 16947 ft 317 kts 238°
2026-05-08 00:49 36.22198 -78.07272 16427 ft 315 kts 245°
2026-05-08 00:49 36.21265 -78.09737 15911 ft 319 kts 247°
2026-05-08 00:49 36.20664 -78.11410 15553 ft 322 kts 248°
2026-05-08 00:49 36.19513 -78.14863 14822 ft 326 kts 249°
2026-05-08 00:50 36.18947 -78.16591 14459 ft 326 kts 249°
2026-05-08 00:50 36.18088 -78.19194 13906 ft 327 kts 249°
2026-05-08 00:50 36.17223 -78.21790 13351 ft 326 kts 249°
2026-05-08 00:50 36.16082 -78.25189 12626 ft 320 kts 249°
2026-05-08 00:51 36.15496 -78.26905 12264 ft 318 kts 247°
2026-05-08 00:51 36.14423 -78.29287 11911 ft 314 kts 239°
2026-05-08 00:51 36.13121 -78.31424 11640 ft 310 kts 235°
2026-05-08 00:51 36.11772 -78.33535 11391 ft 316 kts 235°
2026-05-08 00:52 36.10421 -78.35642 11126 ft 309 kts 235°
2026-05-08 00:52 36.09107 -78.37697 10870 ft 299 kts 235°
2026-05-08 00:52 36.07840 -78.39689 10631 ft 291 kts 235°
2026-05-08 00:52 36.06609 -78.41628 10397 ft 283 kts 235°
2026-05-08 00:53 36.05427 -78.43492 10176 ft 275 kts 235°
2026-05-08 00:53 36.04263 -78.45328 9967 ft 268 kts 235°
2026-05-08 00:53 36.03141 -78.47098 9817 ft 259 kts 235°
2026-05-08 00:53 36.02042 -78.48833 9583 ft 253 kts 235°
2026-05-08 00:54 36.00959 -78.50538 9363 ft 252 kts 235°
2026-05-08 00:54 35.99849 -78.52212 9144 ft 254 kts 229°
2026-05-08 00:54 35.98493 -78.53628 8959 ft 257 kts 223°
2026-05-08 00:54 35.97075 -78.55007 8746 ft 261 kts 222°
2026-05-08 00:55 35.95653 -78.56396 8521 ft 260 kts 223°
2026-05-08 00:55 35.94240 -78.57788 8313 ft 260 kts 223°
2026-05-08 00:55 35.92832 -78.59184 8099 ft 260 kts 223°
2026-05-08 00:55 35.91427 -78.60586 7900 ft 261 kts 223°
2026-05-08 00:56 35.90019 -78.61992 7706 ft 257 kts 223°
2026-05-08 00:56 35.88641 -78.63367 7471 ft 253 kts 223°
2026-05-08 00:56 35.87285 -78.64718 7261 ft 248 kts 223°
2026-05-08 00:56 35.85960 -78.66051 7057 ft 243 kts 225°
2026-05-08 00:57 35.84750 -78.67460 6861 ft 236 kts 229°
2026-05-08 00:57 35.83597 -78.68874 6663 ft 231 kts 229°
2026-05-08 00:57 35.82469 -78.70257 6487 ft 227 kts 229°
2026-05-08 00:57 35.81347 -78.71625 6312 ft 226 kts 229°
2026-05-08 00:58 35.80223 -78.72989 6132 ft 226 kts 229°
2026-05-08 00:58 35.79119 -78.74327 5966 ft 220 kts 230°
2026-05-08 00:58 35.78332 -78.75863 5846 ft 209 kts 249°
2026-05-08 00:58 35.77499 -78.77327 5735 ft 215 kts 223°
2026-05-08 00:59 35.76273 -78.78422 5673 ft 221 kts 220°
2026-05-08 00:59 35.75018 -78.79555 5580 ft 226 kts 220°
2026-05-08 00:59 35.73773 -78.80738 5473 ft 225 kts 224°
2026-05-08 00:59 35.72580 -78.81970 5408 ft 223 kts 224°
2026-05-08 01:00 35.71407 -78.83198 5360 ft 220 kts 225°
2026-05-08 01:00 35.70253 -78.84414 5322 ft 217 kts 225°
2026-05-08 01:00 35.69174 -78.85705 5298 ft 216 kts 240°
2026-05-08 01:00 35.68733 -78.87391 5214 ft 209 kts 273°
2026-05-08 01:01 35.69160 -78.89080 4927 ft 208 kts 304°
2026-05-08 01:01 35.70076 -78.90480 4563 ft 211 kts 310°
2026-05-08 01:01 35.71045 -78.91855 4232 ft 214 kts 311°
2026-05-08 01:01 35.72010 -78.93224 3981 ft 209 kts 311°
2026-05-08 01:02 35.72967 -78.94534 3709 ft 204 kts 320°
2026-05-08 01:02 35.74204 -78.95147 3555 ft 192 kts
2026-05-08 01:02 35.75369 -78.94523 3519 ft 177 kts 34°
2026-05-08 01:02 35.76299 -78.93646 3393 ft 161 kts 35°
2026-05-08 01:03 35.77151 -78.92815 3244 ft 156 kts 37°
2026-05-08 01:03 35.77966 -78.91920 3011 ft 155 kts 40°
2026-05-08 01:03 35.78738 -78.90998 2786 ft 155 kts 41°
2026-05-08 01:03 35.79512 -78.90048 2585 ft 161 kts 41°
2026-05-08 01:04 35.80311 -78.89059 2374 ft 165 kts 43°
2026-05-08 01:04 35.81123 -78.88050 2150 ft 165 kts 45°
2026-05-08 01:04 35.81927 -78.87050 1932 ft 162 kts 46°
2026-05-08 01:04 35.82687 -78.86104 1714 ft 150 kts 45°
2026-05-08 01:05 35.83409 -78.85207 1521 ft 147 kts 45°
2026-05-08 01:05 35.84137 -78.84304 1342 ft 150 kts 45°
2026-05-08 01:05 35.84871 -78.83392 1136 ft 150 kts 45°
2026-05-08 01:05 35.85602 -78.82484 937 ft 149 kts 45°
2026-05-08 01:06 35.86331 -78.81580 738 ft 149 kts 45°
2026-05-08 01:06 35.87058 -78.80677 549 ft 149 kts 45°
2026-05-08 01:06 35.87784 -78.79777 393 ft 143 kts 45°
2026-05-08 01:06 35.88367 -78.79052 390 ft 89 kts 45°
2026-05-08 01:07 35.88556 -78.78712 391 ft 12 kts 114°
2026-05-08 01:07 35.88555 -78.78708 391 ft 0 kts 118°
2026-05-08 01:07 35.88534 -78.78673 391 ft 1 kts 132°
2026-05-08 01:07 35.88525 -78.78660 391 ft 7 kts 132°
2026-05-08 01:08 35.88462 -78.78648 391 ft 11 kts 212°
2026-05-08 01:08 35.88341 -78.78793 390 ft 35 kts 225°
2026-05-08 01:08 35.88219 -78.78943 390 ft 0 kts 225°
2026-05-08 01:08 35.88211 -78.78953 390 ft 6 kts 225°
2026-05-08 01:09 35.88165 -78.79010 390 ft 14 kts 225°
2026-05-08 01:09 35.88096 -78.79099 391 ft 17 kts 227°
2026-05-08 01:09 35.87960 -78.79269 391 ft 36 kts 223°
2026-05-08 01:09 35.87785 -78.79482 391 ft 32 kts 225°
2026-05-08 01:10 35.87645 -78.79658 390 ft 28 kts 225°
2026-05-08 01:10 35.87585 -78.79725 390 ft 9 kts 212°
2026-05-08 01:10 35.87496 -78.79741 391 ft 14 kts 158°
2026-05-08 01:10 35.87478 -78.79709 391 ft 0 kts 46°
2026-05-08 01:11 35.87487 -78.79711 391 ft 3 kts 351°
2026-05-08 01:11 35.87518 -78.79697 391 ft 4 kts 44°
2026-05-08 01:11 35.87521 -78.79684 391 ft 1 kts 76°
2026-05-08 01:11 35.87520 -78.79691 391 ft 0 kts 77°